FW8494 Weather Reports


time (UTC)temp
F
wind
direction
speed
knots
gust
knots
rain 1hr
in
rain 24hr
in
rain mn
in
humidity
%
barometer
mb
20260504234528 56 333 13.0 0.0 0.00 0.00 0.00 23 1012.1
20260504233028 56 317 14.8 0.0 0.00 0.00 0.00 23 1012.2
20260504231526 56 315 13.9 0.0 0.00 0.00 0.00 24 1012.2
20260504230025 55 323 12.2 0.0 0.00 0.00 0.00 26 1012.2
20260504224533 56 321 16.5 0.0 0.00 0.00 0.00 27 1012.2
20260504223024 55 346 14.8 0.0 0.00 0.00 0.00 28 1012.1
20260504221524 56 350 14.8 0.0 0.00 0.00 0.00 30 1012.0
20260504220023 54 322 12.2 0.0 0.00 0.00 0.00 32 1012.0
20260504214526 54 327 13.0 0.0 0.00 0.00 0.00 32 1012.1
20260504213023 54 345 13.0 0.0 0.00 0.00 0.00 33 1012.1
20260504211521 55 318 13.0 0.0 0.00 0.00 0.00 32 1012.1
20260504210033 55 336 13.9 0.0 0.00 0.00 0.00 32 1012.1
20260504204529 56 335 15.6 0.0 0.00 0.00 0.00 29 1012.1
20260504203024 55 302 14.8 0.0 0.00 0.00 0.00 30 1011.7
20260504201518 54 332 17.4 0.0 0.00 0.00 0.00 31 1011.7
20260504200018 54 302 16.5 0.0 0.00 0.00 0.00 30 1011.7
20260504194517 54 335 15.6 0.0 0.00 0.00 0.00 31 1011.7
20260504193017 54 337 15.6 0.0 0.00 0.00 0.00 32 1011.7
20260504191516 54 321 14.8 0.0 0.00 0.00 0.00 32 1011.8
20260504190016 55 320 15.6 0.0 0.00 0.00 0.00 32 1011.8
20260504184514 55 338 13.0 0.0 0.00 0.00 0.00 31 1011.8
20260504183014 56 360 11.3 0.0 0.00 0.00 0.00 32 1011.8
20260504181513 55 329 13.9 0.0 0.00 0.00 0.00 33 1011.8
20260504180013 57 329 13.0 0.0 0.00 0.00 0.00 31 1011.7
20260504174509 56 317 13.9 0.0 0.00 0.00 0.00 34 1011.8
20260504173008 55 355 11.3 0.0 0.00 0.00 0.00 35 1011.8
20260504171508 55 303 11.3 0.0 0.00 0.00 0.00 36 1011.7
20260504081523 48 355 11.3 0.0 0.00 0.00 0.00 54 1011.1
20260504044550 56 29 15.6 0.0 0.00 0.00 0.00 37 1006.0
20260504043055 59 5 13.0 0.0 0.00 0.00 0.00 35 1005.4
20260504041549 59 14 11.3 0.0 0.00 0.00 0.00 33 1005.1
20260504040049 59 16 9.6 0.0 0.00 0.00 0.00 33 1004.7
20260504034555 59 20 10.4 0.0 0.00 0.00 0.00 33 1004.5
20260504033047 60 37 11.3 0.0 0.00 0.00 0.00 34 1004.1
20260504031547 60 25 9.6 0.0 0.00 0.00 0.00 34 1003.8
20260504030046 62 27 10.4 0.0 0.00 0.00 0.00 32 1003.6
20260504024551 64 43 9.6 0.0 0.00 0.00 0.00 28 1003.2
20260504023045 65 21 5.2 0.0 0.00 0.00 0.00 23 1003.0
20260504021549 67 13 5.2 0.0 0.00 0.00 0.00 21 1002.9
20260504020044 69 5 7.8 0.0 0.00 0.00 0.00 20 1003.0
20260504014544 70 5 8.7 0.0 0.00 0.00 0.00 19 1003.0
20260504013056 71 5 8.7 0.0 0.00 0.00 0.00 19 1003.0
20260504011543 72 333 9.6 0.0 0.00 0.00 0.00 18 1003.1
20260504010043 73 355 9.6 0.0 0.00 0.00 0.00 18 1003.2
20260504004539 73 330 9.6 0.0 0.00 0.00 0.00 18 1003.3
20260504003039 74 327 9.6 0.0 0.00 0.00 0.00 18 1003.4
20260504001540 74 360 10.4 0.0 0.00 0.00 0.00 18 1003.5
20260504000037 75 311 11.3 0.0 0.00 0.00 0.00 18 1003.7